Zurück zum Katalog

IRIDIUM 33 DEB

AktivPO
NORAD 34833·DEBRIS·🇺🇸 United States

Gestartet Sep 14, 1997 von Baikonur Cosmodrome

Loading…

Nächste Überflüge (nächste 24 Stunden)

TLE

AktuellSource: Space-Track

Epoche: Sep 14, 2026, 07:44 UTC

1 34833U 97051MH  26257.32257358  .00001477  00000-0  34585-3 0  9997
2 34833  86.3892 292.0836 0016935 247.5010 235.8060 14.53879357917173

Verfolge IRIDIUM 33 DEB in Echtzeit mit AllMySat

Download on the App Store